Weather in Pokhvistnevo

Russia / Samara Oblast     53°39′11″N   52°07′20″E
temp.,
°C
wind,
m/s
gust,
m/s
humid.,
%
clouds,
%
prec.,
mm/h
press.,
hPa
HPBL,
m
26 february, fri
fri2601:00−19sse51096100 0.4 1022480
04:00−19se51196100 0.7 1021431
07:00−17se51195100 0.3 1020469
10:00−16se71092100 0.4 1020509
13:00−14se71091100 0.1 1020608
16:00−14se61091100 0.1 1019614
19:00−15se61293100 0.1 1017493
22:00−14sse81492100 0.1 1013521
27 february, sat
sat2701:00−13sse91694100 2.2 1006585
04:00−10sse71495100 8.1 1003603
07:00−9sse61195100 1.1 999362
10:00−5sse2496100 2.1 999177
13:000sw4810099 0.6 998428
16:000wsw5899100 1.3 998485
19:000sw4799100 0.9 997353
22:00−1sw3698100 2.0 998278
28 february, sun
sun2801:00−1ssw2599100 0.7 997192
04:00−2sw2298100 1.6 99871
07:00−3nw359796 0.6 1000127
10:00−8n589388 0.8 1002263
13:00−10n699391 0.1 1005345
16:00−10n589195 0.2 1007437
19:00−13nnw499397 0.1 1010343
22:00−17nnw379492 0.1 1013159
1 march, mon
mon101:00−20nnw339658 0.0 101556
04:00−21nnw339630 0.0 101745
07:00−22nnw34960 0.0 101852
10:00−19n35930 0.0 1021231
13:00−16nnw359121 0.0 1022306
16:00−15nnw359148 0.0 1022310
19:00−20nnw239717 0.0 102320
22:00−22wnw11998 0.0 102320
2 march, tue
tue201:00−22wsw12990 0.0 102120
04:00−23ssw3310019 0.0 102030
07:00−21ssw38100100 0.0 1017181
10:00−17ssw61096100 0.1 1014326
13:00−12ssw61094100 0.8 1011488
16:00−10ssw61094100 1.4 1008510
19:00−9s4896100 0.9 1005339
22:00−8sse2297100 1.6 100469